This is the latest recevied weather packets stored in our database for station/object EA2KR-10. If no packets are shown the sender has not sent any weather packets the latest 10 day(s).
| Time | Temp. | Humidity | Pressure | Rain* | Wind** | Luminosity | Snow |
|---|---|---|---|---|---|---|---|
| 1788588212 | 27.78° C | 26% | 1034.9 hPa | - | - | - | - |
| 1788586412 | 27.78° C | 26% | 1034.8 hPa | - | - | - | - |
| 1788584612 | 27.78° C | 27% | 1034.6 hPa | - | - | - | - |
| 1788582812 | 27.78° C | 26% | 1034.8 hPa | - | - | - | - |
| 1788581012 | 28.33° C | 25% | 1034.5 hPa | - | - | - | - |
| 1788579212 | 28.33° C | 25% | 1034.6 hPa | - | - | - | - |
| 1788577411 | 28.89° C | 25% | 1034.6 hPa | - | - | - | - |
| 1788575611 | 28.89° C | 24% | 1034.5 hPa | - | - | - | - |
| 1788573811 | 29.44° C | 24% | 1034.5 hPa | - | - | - | - |
| 1788572011 | 29.44° C | 25% | 1034.5 hPa | - | - | - | - |
| 1788570211 | 29.44° C | 25% | 1034.4 hPa | - | - | - | - |
| 1788568411 | 30° C | 24% | 1034.7 hPa | - | - | - | - |
| 1788566611 | 30.56° C | 24% | 1034.9 hPa | - | - | - | - |
| 1788564811 | 31.11° C | 25% | 1035.1 hPa | - | - | - | - |
| 1788563011 | 31.67° C | 24% | 1035.1 hPa | - | - | - | - |
| 1788561210 | 32.78° C | 24% | 1034.8 hPa | - | - | - | - |
| 1788559410 | 33.89° C | 23% | 1034.9 hPa | - | - | - | - |
| 1788557610 | 35.56° C | 23% | 1034.8 hPa | - | - | - | - |
| 1788555810 | 37.22° C | 20% | 1034.7 hPa | - | - | - | - |
| 1788554009 | 38.33° C | 19% | 1034.6 hPa | - | - | - | - |
| 1788552209 | 40.56° C | 16% | 1034.3 hPa | - | - | - | - |
| 1788550409 | 42.22° C | 13% | 1033.8 hPa | - | - | - | - |
| 1788548609 | 43.89° C | 12% | 1033.5 hPa | - | - | - | - |
| 1788546811 | 45.56° C | 11% | 1033.1 hPa | - | - | - | - |
| 1788545011 | 47.78° C | 11% | 1032.8 hPa | - | - | - | - |
* Rain since midnight (hover to see other rain measurements)
** Current wind speed in m/s (hover to see current wind gust speed)